Louis Armstrong New Orleans International Airport
KMSY : now visible

Airfield :











YOU CAN JOIN US ON...

 
LOGIN :

Register | Disclaimer

   EN    FR    IT 

 









Legend :    VFR   Marginal VFR   IFR   Intensive IFR   Very Intensive IFR
Visi :
Ceiling :
>= 8 km
>= 3000ft
5 to 8 km
1000 to 3000 ft
1500m to 5 km
500 to 1000 ft
800 to 1500m
200 to 500 ft
< 800m
< 200 ft
Symbols :   Thunderstorms  Fog  Heavy snow  Heavy precipitations  Wind > 20 kt






- Airport Elevation : 4 ft
- IATA code : MSY


KMSY - Louis Armstrong New Orleans International

CURRENT METAR :
  • 160753Z 04005KT 10SM OVC026 21/16 A2987 RMK AO2 SLP118 T02110161

EXPIRED METARs :
  • 160653Z 04006KT 10SM OVC026 21/16 A2989 RMK AO2 SLP125 T02110161
  • 160553Z 08007KT 10SM OVC027 21/16 A2988 RMK AO2 SLP120 T02110161 10217 20206 402280183 58014

TAF KMSY
Valid from the 16 at 06:00 until the 17 at 12:00 UTC


160552Z 1606/1712 06005KT P6SM OVC025
FM161400 09010G19KT P6SM -SHRA VCTS OVC020CB
FM161900 12009KT P6SM SHRA VCTS OVC010CB
FM170000 14007KT 5SM -SHRA BR OVC008
KZHU FIR / North America



MET'MAP, your aeronautical weather chart ! - Copyright ORBIFLY December 2007 - Disclaimer

ORBIFLY MET'MAP TEAM :

Programming & Development : Alexandra Zaïnal
Concept & original design : Baudouin d'Aumeries
Assistance for programming : Marc-Olivier Méhu
Technical & hardware support : Manuel Goepfert

Contact : metmap@orbifly.com




SOURCES & CREDITS :

   NOAA       Earth
Advisory